Weather in Vilaka

Latvia     57˚11′03″N   27˚40′20″E
temp.,
°C
wind,
m/s
gust,
m/s
humid.,
%
clouds,
%
prec.,
mm/h
press.,
hPa
HPBL,
m
27 november, fri
fri2723:00+5˚sw41090100 0.5 1008488
02:00+4˚wsw3892100 0.7 1007389
05:00+4˚wnw2693100 0.4 1007378
08:00+2˚nnw389288 0.5 1007437
11:00+2˚nnw357741 0.1 1008868
14:00nnw379570 0.4 1009490
17:00n379298 0.4 1011538
20:00−1˚n389191 0.4 1013468
28 november, sat
sat2823:00n389170 0.0 1014389
02:00+1˚n4108785 0.1 1016568
05:00+1˚n5108999 0.0 1016664
08:00+2˚nne51095100 0.1 1018720
11:00+2˚ne4896100 0.4 1019543
14:00+1˚ne5985100 0.7 1021744
17:00ne499097 0.1 1022606
20:00ne489398 0.1 1024488
29 november, sun
sun2923:00ne4894100 0.4 1025369
02:00−1˚ne489697 0.8 1025407
05:00ene3694100 0.3 1025311
08:00−1˚ene3797100 0.8 1026364
11:00ene359598 0.3 1026338
14:00+1˚ene468699 0.3 1025618
17:00ne3786100 0.0 1023656
20:00−1˚nne4995100 0.2 1022410
30 november, mon
mon3023:00−1˚nne4997100 1.8 1020392
02:00+1˚nne3698100 3.1 1019237
05:00+2˚ene3698100 1.2 1017290
08:00+2˚ese3698100 1.9 1018387
11:00se369090 0.3 1018435
14:00+1˚s369694 0.6 1019322
17:00+1˚sw4897100 1.7 1019401
20:00+1˚sw4997100 2.6 1021648
1 december, tue
tue123:00−1˚sw4109198 0.3 1022619
02:00−1˚ssw5108998 0.3 1023569
05:00−2˚ssw599199 0.0 1023682
08:00−3˚s51089100 0.1 1024546
11:00−2˚s5108799 0.0 1024540
14:00−1˚s41086100 0.0 1025583
17:00−1˚s4888100 0.0 1026662
20:00−2˚s4788100 0.0 1028610